DMSP 5D-2 F13 DEB, 40437

Orbit data source: Space-Track

DMSP 5D-2 F13 DEB, 40437 is space debris in SSO originally from a launch on Fri, 24 Mar 1995 UTC launched from the Air Force Western Test Range (AFWTR). Debris objects in space refer to the collection of defunct objects orbiting the Earth. Examples of debris include non-operational satellites, rocket bodies, and fragments generated from explosions, collisions, or faulty payload assembly.

Loading next visibility...
Identifier
40437, 1995-015AP
Orbit
SSO
Country
Flag of USUS
Related business
Manufacturer
Unknown
Mission
Spacecraft
Bus & Motor
Unknown
Mass
Unknown
Launch date (UTC)
1995-03-24 (31 years ago)
Launch vehicle
Unknown
Launch site
Air Force Western Test Range (AFWTR)
Object type
Payload
Rocket body
Debris
Shape & HBR
Unknown shape, 0.1 m
Radar Cross Section
Medium (>0.1 m² and <1 m²)

Expand to show TLE details & history
Last TLE update: 2 days ago

TLE from 2 days ago
0 DMSP 5D-2 F13 DEB
1 40437U 95015AP  26171.47115132  .00010220  00000-0  14256-2 0  9994
2 40437  98.6659 251.7696 0011151  56.5465 303.6807 14.77875165590573
Epoch: 2026-06-20T11:18Z
TLE epoch observation values (Epoch: 2026-06-20T11:18:27.474Z)
Latitude
-0.00009°
Longitude
173.46984°
Altitude
634.701 km
Speed
7.543 km/s
True Right ascension
16h 47m 04s
True Declination
0° 00' 00"
Sunlit
Object was in full shadow at epoch
Visualization orbit readout
Latitude
Unknown
Longitude
Unknown
Altitude
Unknown
Speed
Unknown
Apparent Right ascension
Unknown
Apparent Declination
Unknown
Sunlit
N/A
Visualization observer readout
Local Sidereal Time
16:23:48
Azimuth
Unknown
Elevation
Unknown
Doppler factor
Unknown
Orbital elements
Apogee altitude
640.937 km
Perigee altitude
625.301 km
Semi-major axis
7,011.256 km
Eccentricity
0.00112
Inclination
98.6659°
RAAN
251.7696°
Arg. of periapsis
56.5465°
True anomaly
303.57429°
Mean anomaly
303.6807°
Eccentric anomaly
303.6275°
Mean motion
3.697 °/min
Orbital period
97.38 mins
BSTAR
0.0014256
Loading maneuver chart data...
Computing Atmospheric mass density...

Documentation

Showing up to 5 results
|